Regional Weather Roundup
Issued by NWS Kansas City/Pleasant Hill, MO

Home | Current Version | Previous Version | Text Only | Print | Product List | Glossary On
Versions: 1 2 3 4 5 6 7 8 9 10 11 12 13 14 15 16 17 18 19 20 21 22 23 24 25 26 27 28
000
ASUS43 KEAX 220510
RWREAX

WEATHER ROUNDUP FOR EASTERN KANSAS AND NORTHWEST MISSOURI
NATIONAL WEATHER SERVICE KANSAS CITY/PLEASANT HILL MO
1200 AM CDT THU JUN 22 2017

KSZ040-057-103>105-MOZ028-029-037-043-220600-
...KANSAS CITY METROPOLITAN AREA...

CITY           SKY/WX    TMP DP  RH WIND       PRES   REMARKS
K.C. INTL      CLEAR     78  65  63 S15       29.83S
K.C. DOWNTOWN  CLEAR     80  64  58 S14       29.83R
LEES SUMMIT    CLEAR     78  62  57 S16       29.85S
OLATHE - IXD   CLEAR     74  65  73 S8        29.85S
OLATHE - OJC   CLEAR     75  65  70 S9        29.85S
LAWRENCE       CLEAR     75  67  76 SE5       29.84R

$$

MOZ001>008-011>017-020>025-030>033-038>040-044>046-053-054-220600-
...NORTHERN AND CENTRAL MISSOURI...

CITY           SKY/WX    TMP DP  RH WIND       PRES   REMARKS
ST. JOSEPH     CLEAR     80  65  59 S12       29.80S
MOSBY          CLEAR     79  61  53 S5        29.84R
WARRENSBURG    CLEAR     73  63  68 S5        29.86R
WHITEMAN AFB   CLEAR     73  68  83 S8        29.86R
CLINTON        CLEAR     73  64  73 S7        29.88R
SEDALIA        CLOUDY    74  68  81 S9        29.89R
WARSAW         NOT AVBL
CHILLICOTHE      N/A     80  64  58 S9        29.84R
KIRKSVILLE     CLEAR     75  66  73 S10       29.86S

$$

MOZ041-047>049-056>058-063>065-088>090-097-220600-
...EASTERN AND SOUTHERN MISSOURI...

CITY           SKY/WX    TMP DP  RH WIND       PRES   REMARKS
ST. LOUIS INTL MOCLDY    82  68  62 S6        29.93S
SPIRIT OF STL  PTCLDY    74  70  87 CALM      29.92R
COLUMBIA       PTCLDY    75  67  76 S9        29.89F
JEFFERSON CITY PTCLDY    77  66  68 SE7       29.89S
ROLLA          PTCLDY    71  67  87 SE6       29.92S
OSAGE BEACH    PTCLDY    73  67  81 CALM      29.91S
SPRINGFIELD    PTCLDY    73  66  78 CALM      29.90S
BRANSON        PTCLDY    72  68  88 SE9       29.91F
JOPLIN         CLEAR     75  65  70 SE9       29.89S
WEST PLAINS    CLEAR     73  68  84 CALM      29.94S

$$

IAZ060-094-KSZ022-034>040-054-083-096-NEZ052-066-093-220600-
...KANSAS...SOUTHEAST NEBRASKA AND IOWA...

CITY           SKY/WX    TMP DP  RH WIND       PRES   REMARKS
TOPEKA         CLEAR     76  66  71 S8        29.82R
MANHATTAN      MOCLDY    80  60  50 S12G23    29.80R
EMPORIA        CLOUDY    74  62  66 S15       29.83F
CHANUTE        CLEAR     73  63  70 S7        29.86F
WICHITA        CLOUDY    76  61  59 S13       29.82F
OMAHA          PTCLDY    84  60  44 S20       29.72R
LINCOLN        MOCLDY    83  59  44 S17       29.72R
FALLS CITY     CLOUDY    79  63  57 S12G20    29.78R
LAMONI         CLEAR     76  66  71 S9        29.81R
DES MOINES     CLEAR     78  65  63 S12       29.77R

$$





USA.gov is the U.S. government's official web portal to all federal, state and local government web resources and services.